Location: Ward Pound Ridge Reservation
(41.2500°N, 73.6000°W)
Time: 21:34:53
(UTC-04:00)

Vanguard 2 Rocket - Visible Passes

Search period start: 19 October 2017 00:00
Search period end: 29 October 2017 00:00
Orbit: 555 x 3327 km, 32.9° (Epoch: 18 October)

Date Brightness Start Highest point End Pass type
(mag) Time Alt. Az. Time Alt. Az. Time Alt. Az.
19 Oct 10.5 19:13:56 10° W 19:24:41 29° SSW 19:39:24 10° SSE visible
20 Oct 10.2 18:14:00 10° W 18:23:59 34° SSW 18:38:53 10° SSE visible
20 Oct 11.0 20:32:09 10° WSW 20:39:40 15° SW 20:48:21 10° S visible
21 Oct 10.8 19:30:05 10° WSW 19:38:58 20° SSW 19:50:19 10° S visible
22 Oct 10.6 18:29:31 10° WSW 18:38:23 25° SSW 18:50:46 10° SSE visible
23 Oct 11.1 19:48:58 10° SW 19:53:19 12° SW 19:58:11 10° SSW visible
24 Oct 10.9 18:46:13 10° WSW 18:52:50 16° SSW 19:01:08 10° S visible
